Flag for Australia Weather past 2 weeks in Uluru, Northern Territory, Australia

Now
75 °F

Clear.


Feels Like: 76 °F
Forecast: 64 / 88 °F
Wind: 9 mph from South

Location: Ayers Rock

Current Time: Sep 30, 2014 at 11:47:28 PM

Latest Report: Sep 30, 2014 at 10:30 PM


Visibility: N/A

Pressure: 30.04 "Hg

Humidity: 19%

Dew point: 30 °F

Location of UluruLocation

Historic Weather in Uluru — Graph

°F

Uluru temperature yesterday

Maximum temperature yesterday: 95 °F (at 3:30 PM)
Minimum temperature yesterday: 57 °F (at 6:30 AM)
Average temperature yesterday: 79 °F

Past Weeks' High & Low Weather Summary

 TemperatureHumidityPressure
High97 °F (Sep 30, 3:30 PM)82% (Sep 25, 6:30 AM)30.27 "Hg (Sep 25, 6:30 AM)
Low46 °F (Sep 25, 6:30 AM)5% (Sep 22, 2:30 PM)29.83 "Hg (Sep 23, 2:30 AM)
Average72 °F26%30.06 "Hg
* Reported Sep 15 10:30 PM — Sep 30 10:30 PM, Uluru, Weather by CustomWeather, © 2014

Note: Actual official high and low records may vary slightly from our data, if they occured in-between our weather recording intervals... More about our weather records

Advertising

Uluru weather history for previous 24 hours

 ConditionsComfort  
Time TempWeatherWind HumidityBarometerVisibility
10:30 PM
Sep 30
75 °FClear.9 mph19%30.04 "HgN/A
9:30 PM79 °FClear.7 mph17%30.04 "HgN/A
8:30 PM82 °FClear.8 mph15%30.01 "HgN/A
7:30 PM86 °FClear.7 mph13%30.01 "HgN/A
6:30 PM91 °FClear.7 mph11%29.98 "HgN/A
5:30 PM93 °FSunny.8 mph10%29.95 "HgN/A
4:30 PM93 °FSunny.6 mph10%29.95 "HgN/A
3:30 PM97 °FSunny.9 mph9%29.95 "HgN/A
2:30 PM95 °FSunny.9 mph10%29.95 "HgN/A
1:30 PM95 °FSunny.8 mph10%29.98 "HgN/A
12:30 PM95 °FSunny.6 mph10%30.01 "HgN/A
11:30 AM91 °FSunny.9 mph11%30.04 "HgN/A
10:30 AM88 °FSunny.9 mph10%30.04 "HgN/A
9:30 AM86 °FSunny.8 mph11%30.04 "HgN/A
8:30 AM79 °FSunny.10 mph16%30.04 "HgN/A
7:30 AM72 °FSunny.8 mph22%30.01 "HgN/A
6:30 AM70 °FSunny.8 mph23%30.01 "HgN/A
5:30 AM72 °FClear.10 mph22%29.98 "HgN/A
4:30 AM75 °FClear.8 mph19%29.95 "HgN/A
3:30 AM75 °FClear.8 mph19%29.95 "HgN/A
2:30 AM77 °FClear.12 mph19%29.92 "HgN/A
1:30 AM79 °FClear.10 mph20%29.95 "HgN/A
12:30 AM75 °FClear.8 mph22%29.95 "HgN/A
11:30 PM
Sep 29
77 °FClear.6 mph21%29.95 "HgN/A
Weather by CustomWeather, © 2014

See weather overviewHow to use our weather pages